Погода в Счастье

Украина / Луганская область     48°44′13″N   39°14′03″E
темп.,
°C
ветер,
м/с
пор.,
м/с
влажн.,
%
обл.,
%
осадки,
мм/ч
давл.,
гПа
погр.,
м
16 октября, сб
сб1600:00+9в355599 0.0 1023124
03:00+8в365999 0.0 1023121
06:00+7всв3864100 0.0 1022163
09:00+11в584981 0.0 1021383
12:00+16вюв4542100 0.0 1019784
15:00+17в4442100 0.0 10171025
18:00+14всв3450100 0.0 101758
21:00+13всв2351100 0.0 101740
17 октября, вс
вс1700:00+12св2253100 0.0 101623
03:00+11св2454100 0.0 101653
06:00+10ссв2257100 0.0 101634
09:00+13св3449100 0.0 1016222
12:00+16св2339100 0.0 1016646
15:00+17ссв3435100 0.0 1015955
18:00+14с3547100 0.0 101577
21:00+12с355671 0.0 101691
18 октября, пн
пн1800:00+11с235999 0.0 101659
03:00+12ссз2361100 0.0 101679
06:00+11ссз3563100 0.0 1016115
09:00+11ссз346183 0.0 1017320
12:00+15сз344762 0.0 1017952
15:00+16зсз454490 0.0 10151470
18:00+12сз4748100 0.0 1016197
21:00+10сз375682 0.0 1017202
19 октября, вт
вт1900:00+8зсз226362 0.0 101735
03:00+8з3663100 0.0 1016138
06:00+8зсз4860100 0.0 1017419
09:00+9з467096 0.1 1017634
12:00+10зсз4558100 0.1 10161293
15:00+10зсз4567100 0.5 10161041
18:00+8зсз367096 0.3 1018452
21:00+6сз38645 0.3 1019184
20 октября, ср
ср2000:00+4ссз510615 0.0 1020321
03:00+2сз59795 0.0 1022334
06:00+1сз49795 0.0 1025270
09:00+4ссз58635 0.0 1026579
12:00+7ссз564369 0.0 10271583
15:00+9сз453454 0.0 10261772
18:00+6з334292 0.0 102736
21:00+5зюз22489 0.0 102817